Regional Weather Roundup
Issued by NWS

Home | Current Version | Previous Version | Text Only | Print | Product List | Glossary Off
Versions: 1 2 3 4 5 6 7 8 9 10 11 12 13 14 15 16 17 18 19 20 21 22 23 24 25 26 27 28 29 30 31 32 33 34 35 36 37 38 39 40 41 42 43 44 45 46 47 48 49 50

000
ASUS43 KDMX 291301
RWRIA

WEATHER ROUNDUP FOR IOWA
NATIONAL WEATHER SERVICE DES MOINES IA
800 AM CDT SAT APR 29 2017

NOTE: "FAIR" INDICATES FEW OR NO CLOUDS BELOW 12,000 FEET WITH NO
SIGNIFICANT WEATHER AND/OR OBSTRUCTIONS TO VISIBILITY.

* - THESE STATIONS ARE NOT NWS STATIONS...THUS NOT UNDER NWS
QUALITY CONTROL.  THEY ALSO DO NOT REPORT WEATHER SUCH
AS PRECIPITATION OR FOG.

IAZ001>003-012>014-020>022-031>034-043>046-291400-
   NORTHWEST IOWA

CITY           SKY/WX    TMP DP  RH WIND       PRES   REMARKS
CARROLL *      CLOUDY    41  36  81 NE12      30.15F
CHEROKEE *     CLOUDY    39  32  76 NE9       30.20R WCI  33
DENISON *      PTSUNNY   41  34  75 NE15G23   30.14F
LE MARS *      PTSUNNY   39  30  70 N8        30.22R WCI  34
ORANGE CITY *  PTSUNNY   39  30  70 NE8       30.21R WCI  34
SHELDON *      CLOUDY    39  30  70 NE15G22   30.19R WCI  31
SIOUX CITY     PTSUNNY   42  31  64 NE12      30.20R
SPENCER        PTSUNNY   38  30  73 NE15      30.19R WCI  29
STORM LAKE *   CLOUDY    39  32  75 NE17      30.17S WCI  30
$$

IAZ055>058-069>071-079>083-090>094-291400-
   SOUTHWEST IOWA

CITY           SKY/WX    TMP DP  RH WIND       PRES   REMARKS
ATLANTIC *     CLOUDY    43  36  75 NE16G23   30.09F
AUDUBON *      CLOUDY    39  36  87 NE15G21   30.11F WCI  31
CLARINDA *     CLOUDY    45  37  76 NE16G23   30.06F
COUNCIL BLFS * CLOUDY    41  37  87 NE15G25   30.09R
CRESTON *      CLOUDY    43  37  81 NE18G24   30.07R
HARLAN  *      PTSUNNY   41  36  81 NE15G24   30.12F
LAMONI         CLOUDY    44  41  89 NE17G24   30.02R
RED OAK *      CLOUDY    43  37  81 NE18G25   30.06F
SHENANDOAH *   CLOUDY    45  37  76 NE17      30.05F
$$

IAZ047>049-059>061-072>074-084-291400-
   CENTRAL IOWA

CITY           SKY/WX    TMP DP  RH WIND       PRES   REMARKS
AMES           CLOUDY    43  36  76 NE14      30.16R
ANKENY *       CLOUDY    43  36  75 NE15G21   30.13S
BOONE *        CLOUDY    41  36  81 NE13      30.15R
CHARITON *     CLOUDY    43  41  93 NE16      30.05R
DES MOINES     CLOUDY    45  36  70 NE16      30.11R
GRINNELL*      CLOUDY    43  38  82 NE15G21   30.12F
KNOXVILLE *    CLOUDY    45  39  81 NE15      30.06F
MARSHALLTOWN   PTSUNNY   43  36  76 NE15      30.15R
NEWTON *       CLOUDY    45  37  76 NE15G22   30.10S
PELLA *        CLOUDY    44  39  82 NE7G21    30.09F
PERRY *        PTSUNNY   42  36  77 NE10      30.16R
$$

IAZ004>006-015-016-023>025-035-036-291400-
   NORTH CENTRAL IOWA

CITY           SKY/WX    TMP DP  RH WIND       PRES   REMARKS
ALGONA *       CLOUDY    37  34  87 NE12      30.20R WCI  30
CLARION *      CLOUDY    41  36  81 E15       30.20R
ESTHERVILLE    CLOUDY    37  32  82 NE15      30.19R WCI  28
FORT DODGE *   PTSUNNY   39  30  70 NE6       30.20R WCI  35
MASON CITY     CLOUDY    40  32  73 NE14      30.23R WCI  32
FOREST CITY *    N/A     39  30  70 NE8       30.23R WCI  34
WEBSTER CITY * CLOUDY    41  34  75 NE14G20   30.17R
IOWA FALLS *     N/A     41  34  75 NE9       30.20R
$$

IAZ007>011-017>019-026>030-037>042-050>054-066-291400-
   NORTHEAST IOWA

CITY           SKY/WX    TMP DP  RH WIND       PRES   REMARKS
CEDAR RAPIDS   CLOUDY    44  40  85 NE15      30.13R
CHARLES CITY * MOSUNNY   41  34  75 NE14G21   30.21R
CLINTON *      CLOUDY    46  36  68 E20G32    30.13R
DECORAH *      CLOUDY    39  34  81 NE8       30.21R WCI  34
DUBUQUE        CLOUDY    43  36  76 NE13      30.16R
MONTICELLO *   CLOUDY    45  37  76 NE10G18   30.16R
OELWEIN *      CLOUDY    43  36  75 E14       30.18R
WATERLOO       CLOUDY    43  34  70 NE12      30.18R
$$

IAZ064-065-067-068-078-291400-
   EAST CENTRAL IOWA

CITY           SKY/WX    TMP DP  RH WIND       PRES   REMARKS
DAVENPORT      CLOUDY    46  41  82 NE23G29   30.10S
IOWA CITY      CLOUDY    47  39  74 NE15      30.13R
MT. PLEASANT * CLOUDY    46  46  99 NE15G22   30.06R
MUSCATINE *    CLOUDY    48  43  81 NE18G26   30.10R
QUAD CITIES    CLOUDY    47  42  83 E17G26    30.09R
$$

IAZ062-063-075>077-085>089-095>099-291400-
   SOUTHEAST IOWA

CITY           SKY/WX    TMP DP  RH WIND       PRES   REMARKS
BURLINGTON     LGT RAIN  47  46  97 NE17      30.04R FOG
FAIRFIELD *    CLOUDY    46  43  87 NE17      30.05F
FORT MADISON * LGT RAIN  46  46 100 NE18G24   29.98F
KEOKUK *       CLOUDY    48  46  93 NE15G25   29.97F FOG
OSKALOOSA *    CLOUDY    44  40  85 NE22      30.05F
CENTERVILLE *  CLOUDY    45  45 100 NE13G26   30.01S
OTTUMWA        CLOUDY    46  42  86 NE16G24   30.04F
WASHINGTON *   CLOUDY    46  45  93 NE20G25   30.09R
$$

ABBREVIATIONS USED IN REMARKS
   TC - TEMPERATURES IN CELSIUS
  WCI - WIND CHILL INDEX
   HX - HEAT INDEX
  VSB - VISIBILITY
$$





USA.gov is the U.S. government's official web portal to all federal, state and local government web resources and services.